Weather Roundup
Issued by NWS Springfield, MO

Current Version | Previous Version | Text Only | Print | Product List | Glossary On
Versions: 1 2 3 4 5 6 7 8 9 10 11 12 13 14 15 16 17 18 19 20 21 22 23 24 25 26 27 28 29 30 31 32 33 34 35 36 37 38 39 40 41 42 43 44 45 46 47 48 49 50
000
NZUS99 KSGF 191307
HRRSGF

HOURLY WEATHER
NATIONAL WEATHER SERVICE SPRINGFIELD MO
800 AM CDT THU OCT 19 2017

......SGF CWA......

CITY           SKY/WX    TMP DP  RH WIND       PRES   REMARKS
SPRINGFIELD    CLEAR     52  48  86 S9        30.17R
JOPLIN         CLEAR     54  49  83 S8        30.16S
WEST PLAINS    CLEAR     46  45  96 CALM      30.22R
ROLLA          CLEAR     54  49  83 S10       30.18R
OSAGE BEACH    CLEAR     50  47  89 S3        30.17R
BRANSON        PTCLDY    52  48  87 S6        30.21R

......SURROUNDING SGF CWA......

CITY           SKY/WX    TMP DP  RH WIND       PRES   REMARKS
CHANUTE        PTCLDY    50  46  86 SE8       30.13S
PARSONS        CLEAR     53  47  79 S5        30.15R
COFFEYVILLE    CLEAR     50  47  89 S5        30.14R
EMPORIA        CLEAR     51  46  83 S13       30.08S
GROVE OK       CLEAR     46  46 100 CALM      30.19R
ROGERS AR      PTCLDY    52  49  89 SE6       30.20R
SILOAM SPRINGS CLOUDY    50  47  89 E3        30.20R
HARRISON AR    CLEAR     49  48  97 S5        30.21R
NEAR YELLVILLE CLEAR     46  45  96 CALM      30.21R

......KANSAS AND MISSOURI......

CITY           SKY/WX    TMP DP  RH WIND       PRES   REMARKS
KANSAS CTY INT PTCLDY    49  47  93 S9        30.09S
DOWNTOWN KC    CLEAR     53  49  86 CALM      30.09S
COLUMBIA       CLEAR     50  47  89 S7        30.15R
SEDALIA        CLEAR     57  50  77 SW10      30.14R
ST JOSEPH      PTCLDY    41  41 100 CALM      30.09R FOG
ST LOUIS       PTCLDY    58  49  72 CALM      30.17R
SPIRIT OF STL  CLEAR     48  48 100 CALM      30.16R
KIRKSVILLE     CLEAR     48  48 100 S5        30.13R
WICHITA        PTCLDY    50  47  89 SE7       30.08R
TOPEKA         CLEAR     47  47 100 CALM      30.08S FOG
OLATHE         CLEAR     51  47  86 S6        30.10S

......TENNESSEE......

CITY           SKY/WX    TMP DP  RH WIND       PRES   REMARKS
MEMPHIS        CLOUDY    54  47  77 CALM      30.25R
NASHVILLE      SUNNY     46  44  93 S5        30.30R

......ARKANSAS.......

CITY           SKY/WX    TMP DP  RH WIND       PRES   REMARKS
FAYETTEVILLE   CLOUDY    45  45 100 CALM      30.21R
FT SMITH       CLOUDY    54  51  90 NE5       30.19R
LITTLE ROCK    MOCLDY    48  48 100 SE3       30.22R

......OKLAHOMA.......

CITY           SKY/WX    TMP DP  RH WIND       PRES   REMARKS
TULSA          MOCLDY    50  48  93 SE5       30.14R
PONCA CITY     CLEAR     53  45  74 SE5       30.10R
MCALESTER      PTCLDY    56  50  80 CALM      30.17R
OKLAHOMA CITY  MOCLDY    52  45  77 S9        30.11R

......IOWA............

CITY           SKY/WX    TMP DP  RH WIND       PRES   REMARKS
DES MOINES     PTCLDY    53  37  54 E8        30.11R
QUAD CITIES    CLOUDY    44  42  93 CALM      30.13R

......ILLINOIS........

CITY           SKY/WX    TMP DP  RH WIND       PRES   REMARKS
QUINCY         CLEAR     52  46  80 S8        30.13R
CHICAGO        MOCLDY    53  43  68 NW5       30.13R




USA.gov is the U.S. government's official web portal to all federal, state and local government web resources and services.